TimeEDT,TemperatureF,Dew PointF,Humidity,Sea Level PressureIn,VisibilityMPH,Wind Direction,Wind SpeedMPH,Gust SpeedMPH,PrecipitationIn,Events,Conditions,WindDirDegrees,DateUTC
12:15 AM,78.8,75.2,89,29.97,10.0,SW,3.5,-,N/A,,Clear,230,2013-08-06 04:15:00
12:35 AM,78.8,75.2,89,29.97,10.0,Calm,Calm,-,N/A,,Clear,0,2013-08-06 04:35:00
12:53 AM,81.0,75.9,85,29.95,-9999.0,Calm,Calm,-,N/A,,Unknown,0,2013-08-06 04:53:00
12:55 AM,78.8,75.2,89,29.96,10.0,Calm,Calm,-,N/A,,Clear,0,2013-08-06 04:55:00
1:15 AM,78.8,75.2,89,29.96,10.0,Calm,Calm,-,N/A,,Clear,0,2013-08-06 05:15:00
1:35 AM,78.8,75.2,89,29.95,7.0,Calm,Calm,-,N/A,,Clear,0,2013-08-06 05:35:00
1:53 AM,79.0,75.9,90,29.94,-9999.0,Calm,Calm,-,N/A,,Unknown,0,2013-08-06 05:53:00
1:55 AM,77.0,73.4,89,29.95,7.0,Calm,Calm,-,N/A,,Clear,0,2013-08-06 05:55:00
2:15 AM,77.0,75.2,94,29.95,7.0,Calm,Calm,-,N/A,,Scattered Clouds,0,2013-08-06 06:15:00
2:35 AM,77.0,75.2,94,29.94,7.0,Calm,Calm,-,N/A,,Scattered Clouds,0,2013-08-06 06:35:00
2:53 AM,79.0,75.0,88,29.92,-9999.0,Calm,Calm,-,N/A,,Unknown,0,2013-08-06 06:53:00
2:55 AM,77.0,73.4,89,29.93,7.0,Calm,Calm,-,N/A,,Clear,0,2013-08-06 06:55:00
3:15 AM,77.0,73.4,89,29.93,4.0,Calm,Calm,-,N/A,,Clear,0,2013-08-06 07:15:00
3:35 AM,77.0,73.4,89,29.92,5.0,Calm,Calm,-,N/A,,Clear,0,2013-08-06 07:35:00
3:53 AM,78.1,75.0,90,29.90,-9999.0,Calm,Calm,-,N/A,,Unknown,0,2013-08-06 07:53:00
3:55 AM,77.0,73.4,89,29.92,4.0,Calm,Calm,-,N/A,,Clear,0,2013-08-06 07:55:00
4:15 AM,77.0,73.4,89,29.91,3.0,Calm,Calm,-,N/A,,Clear,0,2013-08-06 08:15:00
4:35 AM,77.0,73.4,89,29.90,2.5,Calm,Calm,-,N/A,,Mostly Cloudy,0,2013-08-06 08:35:00
4:53 AM,78.1,75.0,90,29.90,-9999.0,Calm,Calm,-,N/A,,Unknown,0,2013-08-06 08:53:00
4:55 AM,77.0,73.4,89,29.91,1.0,Calm,Calm,-,N/A,,Overcast,0,2013-08-06 08:55:00
5:15 AM,75.2,73.4,94,29.91,1.0,Calm,Calm,-,N/A,,Overcast,0,2013-08-06 09:15:00
5:35 AM,75.2,73.4,94,29.91,0.8,Calm,Calm,-,N/A,,Overcast,0,2013-08-06 09:35:00
5:53 AM,77.0,75.0,94,29.91,-9999.0,Calm,Calm,-,N/A,,Unknown,0,2013-08-06 09:53:00
5:55 AM,75.2,73.4,94,29.92,1.2,Calm,Calm,-,N/A,,Overcast,0,2013-08-06 09:55:00
6:15 AM,75.2,73.4,94,29.92,1.5,Calm,Calm,-,N/A,,Overcast,0,2013-08-06 10:15:00
6:35 AM,75.2,73.4,94,29.93,0.8,Calm,Calm,-,N/A,,Overcast,0,2013-08-06 10:35:00
6:53 AM,77.0,75.0,94,29.92,-9999.0,Calm,Calm,-,N/A,,Unknown,0,2013-08-06 10:53:00
6:55 AM,75.2,73.4,94,29.93,0.8,Calm,Calm,-,N/A,,Overcast,0,2013-08-06 10:55:00
7:15 AM,75.2,73.4,94,29.93,0.5,Calm,Calm,-,N/A,Fog,Fog,0,2013-08-06 11:15:00
7:35 AM,75.2,73.4,94,29.95,0.5,Calm,Calm,-,N/A,Fog,Fog,0,2013-08-06 11:35:00
7:53 AM,77.0,75.0,94,29.94,-9999.0,Calm,Calm,-,N/A,,Unknown,0,2013-08-06 11:53:00
7:55 AM,75.2,73.4,94,29.95,0.2,Calm,Calm,-,N/A,Fog,Fog,0,2013-08-06 11:55:00
8:15 AM,77.0,73.4,89,29.96,0.2,Calm,Calm,-,N/A,Fog,Fog,0,2013-08-06 12:15:00
8:35 AM,77.0,73.4,89,29.97,0.2,Calm,Calm,-,N/A,Fog,Fog,0,2013-08-06 12:35:00
8:53 AM,78.1,75.9,93,29.97,-9999.0,NNE,4.6,-,N/A,,Unknown,20,2013-08-06 12:53:00
8:55 AM,77.0,73.4,89,29.98,0.8,North,4.6,-,N/A,,Overcast,10,2013-08-06 12:55:00
9:15 AM,77.0,75.2,94,29.99,1.2,NE,4.6,-,N/A,,Overcast,50,2013-08-06 13:15:00
9:35 AM,77.0,75.2,94,29.99,3.0,East,3.5,-,N/A,,Overcast,100,2013-08-06 13:35:00
9:53 AM,80.1,75.9,87,29.98,-9999.0,ESE,5.8,-,N/A,,Unknown,110,2013-08-06 13:53:00
9:55 AM,78.8,77.0,94,29.99,5.0,ESE,4.6,-,N/A,,Overcast,120,2013-08-06 13:55:00
10:15 AM,78.8,77.0,94,29.99,3.0,ESE,3.5,-,N/A,,Overcast,120,2013-08-06 14:15:00
10:35 AM,80.6,77.0,89,29.99,2.0,ENE,3.5,-,N/A,,Mostly Cloudy,60,2013-08-06 14:35:00
10:53 AM,84.9,77.0,77,29.98,-9999.0,NE,4.6,-,N/A,,Unknown,40,2013-08-06 14:53:00
10:55 AM,80.6,78.8,94,30.00,4.0,East,3.5,-,N/A,,Mostly Cloudy,80,2013-08-06 14:55:00
11:15 AM,82.4,77.0,84,30.00,4.0,ESE,4.6,-,N/A,,Haze,120,2013-08-06 15:15:00
11:35 AM,82.4,77.0,84,30.00,7.0,East,4.6,-,N/A,,Mostly Cloudy,80,2013-08-06 15:35:00
11:53 AM,86.0,75.9,72,29.99,-9999.0,East,5.8,-,N/A,,Unknown,100,2013-08-06 15:53:00
11:55 AM,84.2,75.2,74,30.00,10.0,East,5.8,-,N/A,,Mostly Cloudy,90,2013-08-06 15:55:00
12:15 PM,84.2,75.2,74,30.00,10.0,NE,4.6,-,N/A,,Scattered Clouds,40,2013-08-06 16:15:00
12:35 PM,86.0,77.0,74,29.99,10.0,NNE,6.9,-,N/A,,Scattered Clouds,20,2013-08-06 16:35:00
12:53 PM,88.0,75.9,67,29.98,-9999.0,Variable,4.6,-,N/A,,Unknown,0,2013-08-06 16:53:00
12:55 PM,86.0,75.2,70,29.99,10.0,ENE,4.6,-,N/A,,Scattered Clouds,70,2013-08-06 16:55:00
1:15 PM,87.8,75.2,66,29.98,10.0,NE,3.5,-,N/A,,Scattered Clouds,50,2013-08-06 17:15:00
1:35 PM,87.8,73.4,62,29.97,10.0,ESE,3.5,-,N/A,,Scattered Clouds,110,2013-08-06 17:35:00
1:53 PM,90.0,75.0,61,29.95,-9999.0,Variable,3.5,-,N/A,,Unknown,0,2013-08-06 17:53:00
1:55 PM,87.8,73.4,62,29.97,10.0,NNE,4.6,-,N/A,Thunderstorm,Mostly Cloudy,20,2013-08-06 17:55:00
2:15 PM,89.6,73.4,59,29.96,10.0,Calm,Calm,-,N/A,,Scattered Clouds,0,2013-08-06 18:15:00
2:35 PM,89.6,71.6,55,29.97,10.0,Calm,Calm,-,N/A,,Clear,0,2013-08-06 18:35:00
2:53 PM,93.0,73.9,54,29.95,-9999.0,Calm,Calm,-,N/A,,Unknown,0,2013-08-06 18:53:00
2:55 PM,89.6,71.6,55,29.96,10.0,WSW,3.5,-,N/A,,Scattered Clouds,240,2013-08-06 18:55:00
3:15 PM,89.6,73.4,59,29.95,10.0,North,6.9,-,N/A,,Overcast,10,2013-08-06 19:15:00
3:35 PM,89.6,73.4,59,29.94,10.0,Calm,Calm,-,N/A,,Overcast,0,2013-08-06 19:35:00
3:53 PM,95.0,73.9,50,29.91,-9999.0,ENE,6.9,-,N/A,,Unknown,60,2013-08-06 19:53:00
3:55 PM,91.4,71.6,52,29.93,10.0,NE,5.8,-,N/A,,Mostly Cloudy,50,2013-08-06 19:55:00
4:15 PM,87.8,73.4,62,29.93,10.0,NNE,5.8,-,N/A,,Overcast,20,2013-08-06 20:15:00
4:35 PM,89.6,71.6,55,29.92,10.0,NE,3.5,-,N/A,,Scattered Clouds,50,2013-08-06 20:35:00
4:53 PM,91.0,75.0,59,29.90,-9999.0,SSE,4.6,-,N/A,,Unknown,160,2013-08-06 20:53:00
4:55 PM,89.6,73.4,59,29.91,10.0,SSE,4.6,-,N/A,,Clear,160,2013-08-06 20:55:00
5:15 PM,89.6,73.4,59,29.92,10.0,SSE,6.9,-,N/A,Thunderstorm,Mostly Cloudy,160,2013-08-06 21:15:00
5:35 PM,87.8,75.2,66,29.92,10.0,SE,5.8,-,N/A,Rain-Thunderstorm,Light Thunderstorms and Rain,130,2013-08-06 21:35:00
5:53 PM,80.1,73.9,81,29.94,-9999.0,SSE,13.8,21.9,N/A,,Unknown,160,2013-08-06 21:53:00
5:55 PM,78.8,73.4,83,29.95,5.0,South,12.7,17.3,0.05,Rain-Thunderstorm,Thunderstorms and Rain,170,2013-08-06 21:55:00
6:15 PM,77.0,71.6,83,29.97,1.5,SSE,12.7,-,0.26,Rain-Thunderstorm,Heavy Thunderstorms and Rain,160,2013-08-06 22:15:00
6:35 PM,75.2,71.6,89,29.94,5.0,South,6.9,-,0.40,Rain-Thunderstorm,Light Thunderstorms and Rain,190,2013-08-06 22:35:00
6:53 PM,78.1,73.9,87,29.94,-9999.0,WSW,6.9,-,0.62,,Unknown,240,2013-08-06 22:53:00
6:55 PM,77.0,73.4,89,29.95,10.0,WSW,5.8,-,0.40,Thunderstorm,Thunderstorm,250,2013-08-06 22:55:00
7:15 PM,77.0,71.6,83,29.96,4.0,ESE,12.7,17.3,N/A,Thunderstorm,Overcast,110,2013-08-06 23:15:00
7:35 PM,77.0,71.6,83,29.96,3.0,SE,8.1,18.4,0.08,Rain-Thunderstorm,Thunderstorms and Rain,130,2013-08-06 23:35:00
7:53 PM,78.1,73.9,87,29.96,-9999.0,Calm,Calm,-,0.09,,Unknown,0,2013-08-06 23:53:00
7:55 PM,77.0,73.4,89,29.98,7.0,Calm,Calm,-,0.09,,Overcast,0,2013-08-06 23:55:00
8:15 PM,77.0,73.4,89,29.97,7.0,Calm,Calm,-,N/A,Thunderstorm,Mostly Cloudy,0,2013-08-07 00:15:00
8:35 PM,75.2,71.6,89,29.97,3.0,Calm,Calm,-,N/A,,Clear,0,2013-08-07 00:35:00
8:53 PM,77.0,73.0,88,29.96,-9999.0,NNE,5.8,-,N/A,,Unknown,20,2013-08-07 00:53:00
8:55 PM,75.2,71.6,89,29.97,7.0,NNE,5.8,-,N/A,,Clear,20,2013-08-07 00:55:00
9:15 PM,75.2,71.6,89,29.97,10.0,Calm,Calm,-,N/A,,Clear,0,2013-08-07 01:15:00
9:35 PM,73.4,71.6,94,29.97,7.0,Calm,Calm,-,N/A,,Clear,0,2013-08-07 01:35:00
9:53 PM,77.0,73.0,88,29.98,-9999.0,Calm,Calm,-,N/A,,Unknown,0,2013-08-07 01:53:00
9:55 PM,75.2,71.6,89,29.99,7.0,Calm,Calm,-,N/A,,Clear,0,2013-08-07 01:55:00
10:15 PM,75.2,71.6,89,30.00,5.0,Calm,Calm,-,N/A,,Scattered Clouds,0,2013-08-07 02:15:00
10:35 PM,73.4,71.6,94,30.00,5.0,North,3.5,-,N/A,,Scattered Clouds,10,2013-08-07 02:35:00
10:53 PM,77.0,73.0,88,29.98,-9999.0,ENE,4.6,-,N/A,,Unknown,60,2013-08-07 02:53:00
10:55 PM,73.4,71.6,94,30.00,7.0,ENE,3.5,-,N/A,,Mostly Cloudy,70,2013-08-07 02:55:00
11:15 PM,73.4,71.6,94,30.00,7.0,Calm,Calm,-,N/A,,Mostly Cloudy,0,2013-08-07 03:15:00
11:35 PM,73.4,71.6,94,30.00,7.0,Calm,Calm,-,N/A,,Scattered Clouds,0,2013-08-07 03:35:00
11:53 PM,75.9,73.0,91,29.99,-9999.0,Calm,Calm,-,N/A,,Unknown,0,2013-08-07 03:53:00
11:55 PM,73.4,71.6,94,30.00,7.0,Calm,Calm,-,N/A,,Clear,0,2013-08-07 03:55:00